Rensselaer, IN

4:40 AM CST on February 27, 2017 (GMT -0600)
Jasper County

Weather History for KRZL - January, 2013

Change the Weather History Date:

Monday, January 28, 2013

  Actual Average (KIKK) Record (KIKK)
Temperature  
Mean Temperature 44 °F -  
Max Temperature 50 °F 30 °F 60 °F (2002)
Min Temperature 37 °F 10 °F -17 °F (1977)
Degree Days  
Heating Degree Days 22    
Moisture  
Dew Point 46 °F    
Average Humidity 98    
Maximum Humidity 100    
Minimum Humidity 93    
Precipitation  
Precipitation 0.01 in - - ()
Sea Level Pressure  
Sea Level Pressure 29.93 in    
Wind  
Wind Speed 9 mph (SSW)    
Max Wind Speed 21 mph    
Max Gust Speed 28 mph    
Visibility 2 miles    
Events Fog , Rain    
Averages and records for this station are not official NWS values.
T = Trace of Precipitation, MM = Missing Value Source: NWS Daily Summary

Daily Weather History Graph

Daily Weather History Graph

Search for Another Location

Airport or City:

Trip Planner

Search our weather history database for the weather conditions in past years. The results will help you decide how hot, cold, wet, or windy it might be!

Date:

Astronomy

Jan. 28, 2013 Rise Set
Actual Time 7:02 AM CST 5:01 PM CST
Civil Twilight 6:33 AM CST 5:30 PM CST
Nautical Twilight 6:00 AM CST 6:03 PM CST
Astronomical Twilight 5:27 AM CST 6:36 PM CST
Moon 6:56 PM CST (1/28) 7:26 AM CST (1/28)
Length of Visible Light 10h 57m
Length of Day
9h 58m
Full, 98% of the Moon is Illuminated
Jan 28
Full
Feb 3
Last Quarter
Feb 10
New
Feb 17
First Quarter
Feb 25
Full

Hourly Weather History & Observations

Time (CST) Temp. Windchill Dew Point Humidity Pressure Visibility Wind Dir Wind Speed Gust Speed Precip Events Conditions
12:15 AM 37.4 °F - 37.4 °F 100% 29.99 in 0.8 mi Calm Calm - N/A Rain Light Rain
12:35 AM 37.4 °F - 35.6 °F 93% 29.98 in 0.5 mi Calm Calm - N/A Fog Fog
12:55 AM 37.4 °F 34.9 °F 37.4 °F 100% 29.96 in 0.8 mi SSE 3.5 mph - N/A   Overcast
1:15 AM 41.0 °F 35.8 °F 39.2 °F 93% 29.95 in 3.0 mi South 8.1 mph - N/A   Overcast
1:35 AM 41.0 °F 33.9 °F 41.0 °F 100% 29.95 in 4.0 mi South 12.7 mph - N/A   Light Drizzle
1:55 AM 42.8 °F 36.2 °F 41.0 °F 93% 29.94 in 4.0 mi South 12.7 mph 17.3 mph N/A   Light Drizzle
2:15 AM 42.8 °F 35.1 °F 42.8 °F 100% 29.94 in 5.0 mi SSW 16.1 mph 23.0 mph N/A   Light Drizzle
2:55 AM 44.6 °F 37.2 °F 42.8 °F 93% 29.93 in 2.5 mi SSW 17.3 mph 21.9 mph N/A Rain Rain
3:15 AM 44.6 °F 37.2 °F 44.6 °F 100% 29.93 in 2.5 mi SSW 17.3 mph 24.2 mph N/A   Drizzle
3:35 AM 44.6 °F 37.2 °F 44.6 °F 100% 29.93 in 3.0 mi SSW 17.3 mph 24.2 mph N/A   Light Drizzle
4:15 AM 44.6 °F 36.6 °F 44.6 °F 100% 29.91 in 5.0 mi SSW 19.6 mph 25.3 mph N/A   Overcast
4:35 AM 44.6 °F 36.9 °F 44.6 °F 100% 29.91 in 5.0 mi SSW 18.4 mph 24.2 mph N/A   Overcast
4:55 AM 46.4 °F 39.2 °F 44.6 °F 93% 29.91 in 5.0 mi SSW 18.4 mph 26.5 mph N/A   Overcast
5:15 AM 46.4 °F 39.0 °F 44.6 °F 93% 29.90 in 5.0 mi SSW 19.6 mph 24.2 mph N/A   Overcast
5:35 AM 46.4 °F 38.7 °F 44.6 °F 93% 29.90 in 5.0 mi SSW 20.7 mph 26.5 mph N/A   Overcast
5:55 AM 46.4 °F 39.5 °F 44.6 °F 93% 29.90 in 4.0 mi SSW 17.3 mph 26.5 mph N/A Rain Rain
6:15 AM 46.4 °F 39.2 °F 44.6 °F 93% 29.90 in 5.0 mi SSW 18.4 mph 27.6 mph 0.01 in Rain Rain
6:35 AM 46.4 °F 39.5 °F 44.6 °F 93% 29.89 in 5.0 mi SSW 17.3 mph 25.3 mph 0.01 in   Overcast
6:55 AM 46.4 °F 39.0 °F 46.4 °F 100% 29.89 in 5.0 mi SSW 19.6 mph 24.2 mph 0.01 in   Overcast
7:15 AM 46.4 °F 39.5 °F 46.4 °F 100% 29.90 in 5.0 mi SSW 17.3 mph 24.2 mph N/A   Overcast
7:35 AM 46.4 °F 39.5 °F 46.4 °F 100% 29.90 in 5.0 mi SSW 17.3 mph 24.2 mph N/A   Overcast
7:55 AM 46.4 °F 40.1 °F 46.4 °F 100% 29.91 in 5.0 mi SSW 15.0 mph 20.7 mph N/A   Overcast
8:15 AM 48.2 °F - 46.4 °F 93% 29.91 in 5.0 mi SSW 16.1 mph - N/A   Overcast
8:35 AM 48.2 °F - 46.4 °F 93% 29.92 in 4.0 mi SSW 15.0 mph - N/A   Overcast
8:55 AM 48.2 °F - 46.4 °F 93% 29.92 in 4.0 mi SSW 16.1 mph 23.0 mph N/A   Overcast
9:15 AM 48.2 °F - 46.4 °F 93% 29.92 in 3.0 mi SSW 13.8 mph 20.7 mph N/A   Drizzle
9:35 AM 48.2 °F - 46.4 °F 93% 29.93 in 2.5 mi SSW 13.8 mph 18.4 mph N/A Rain Heavy Rain
9:55 AM 48.2 °F - 46.4 °F 93% 29.94 in 1.8 mi SSW 15.0 mph - N/A   Drizzle
10:15 AM 48.2 °F - 46.4 °F 93% 29.94 in 1.8 mi SSW 12.7 mph - N/A   Light Drizzle
10:35 AM 50.0 °F - 48.2 °F 94% 29.95 in 1.8 mi SSW 12.7 mph - N/A   Light Drizzle
10:55 AM 50.0 °F - 48.2 °F 94% 29.95 in 2.5 mi SW 12.7 mph - N/A   Overcast
11:15 AM 50.0 °F - 50.0 °F 100% 29.95 in 1.8 mi SW 12.7 mph 17.3 mph N/A   Overcast
11:35 AM 50.0 °F - 50.0 °F 100% 29.94 in 1.0 mi SW 12.7 mph - N/A   Overcast
11:55 AM 50.0 °F - 50.0 °F 100% 29.94 in 0.8 mi SW 11.5 mph - N/A   Overcast
12:15 PM 50.0 °F - 50.0 °F 100% 29.94 in 0.8 mi SW 10.4 mph - N/A   Overcast
12:35 PM 50.0 °F - 50.0 °F 100% 29.94 in 0.8 mi SW 10.4 mph - N/A   Overcast
12:55 PM 50.0 °F - 50.0 °F 100% 29.93 in 0.5 mi SW 9.2 mph - N/A Fog Fog
1:15 PM 50.0 °F - 50.0 °F 100% 29.93 in 0.5 mi SW 10.4 mph - N/A Fog Fog
1:35 PM 50.0 °F - 50.0 °F 100% 29.92 in 0.5 mi SW 8.1 mph - N/A Fog Fog
1:55 PM 50.0 °F - 50.0 °F 100% 29.92 in 0.5 mi SW 8.1 mph - N/A Fog Fog
2:15 PM 50.0 °F - 50.0 °F 100% 29.93 in 0.5 mi SW 8.1 mph - N/A Fog Fog
2:35 PM 50.0 °F - 50.0 °F 100% 29.94 in 0.5 mi SW 9.2 mph - N/A Fog Fog
2:55 PM 50.0 °F - 48.2 °F 94% 29.94 in 0.5 mi SW 6.9 mph - N/A Fog Fog
3:15 PM 50.0 °F - 48.2 °F 94% 29.94 in 0.5 mi SW 3.5 mph - N/A Fog Fog
3:35 PM 50.0 °F - 48.2 °F 94% 29.94 in 0.2 mi SSW 3.5 mph - N/A Fog Fog
3:55 PM 48.2 °F - 48.2 °F 100% 29.94 in 0.2 mi Calm Calm - N/A Fog Fog
4:15 PM 48.2 °F - 46.4 °F 93% 29.94 in 0.2 mi Calm Calm - N/A Fog Fog
4:35 PM 46.4 °F - 46.4 °F 100% 29.94 in 0.2 mi Calm Calm - N/A Fog Fog
4:55 PM 46.4 °F - 46.4 °F 100% 29.95 in 0.2 mi Calm Calm - N/A Fog Fog
5:15 PM 46.4 °F - 44.6 °F 93% 29.95 in 0.2 mi Calm Calm - N/A Fog Fog
5:35 PM 44.6 °F - 44.6 °F 100% 29.96 in 0.2 mi Calm Calm - N/A Fog Fog
5:55 PM 44.6 °F - 44.6 °F 100% 29.96 in 0.2 mi Calm Calm - N/A Fog Fog
6:15 PM 44.6 °F - 44.6 °F 100% 29.96 in 0.2 mi Calm Calm - N/A Fog Fog
6:35 PM 44.6 °F 43.1 °F 44.6 °F 100% 29.96 in 0.2 mi SE 3.5 mph - N/A Fog Fog
6:55 PM 44.6 °F - 44.6 °F 100% 29.96 in 0.2 mi Calm Calm - N/A Fog Fog
7:15 PM 44.6 °F 43.1 °F 44.6 °F 100% 29.95 in 0.2 mi ESE 3.5 mph - N/A Fog Fog
7:35 PM 44.6 °F - 44.6 °F 100% 29.95 in 0.2 mi Calm Calm - N/A Fog Fog
7:55 PM 44.6 °F 42.2 °F 44.6 °F 100% 29.94 in 0.2 mi SE 4.6 mph - N/A Fog Fog
8:15 PM 44.6 °F 42.2 °F 44.6 °F 100% 29.95 in 0.2 mi SSE 4.6 mph - N/A Fog Fog
8:35 PM 44.6 °F 43.1 °F 44.6 °F 100% 29.95 in 0.2 mi SSE 3.5 mph - N/A Fog Fog
8:55 PM 44.6 °F 41.4 °F 44.6 °F 100% 29.95 in 0.2 mi SSE 5.8 mph - N/A Fog Fog
9:15 PM 46.4 °F 42.9 °F 46.4 °F 100% 29.94 in 0.2 mi SSE 6.9 mph - N/A Fog Fog
9:35 PM 46.4 °F 42.9 °F 46.4 °F 100% 29.93 in 0.2 mi SSE 6.9 mph - N/A Fog Fog
9:55 PM 46.4 °F 42.9 °F 46.4 °F 100% 29.92 in 0.2 mi SSE 6.9 mph - N/A Fog Fog
10:15 PM 46.4 °F 43.5 °F 46.4 °F 100% 29.91 in 0.2 mi SE 5.8 mph - N/A Fog Fog
10:35 PM 46.4 °F 42.9 °F 46.4 °F 100% 29.91 in 0.2 mi SE 6.9 mph - N/A Fog Fog
10:55 PM 46.4 °F 41.9 °F 46.4 °F 100% 29.90 in 0.2 mi SSE 9.2 mph - N/A Fog Fog
11:15 PM 46.4 °F 41.9 °F 46.4 °F 100% 29.89 in 0.2 mi SSE 9.2 mph - N/A Fog Fog
11:35 PM 46.4 °F 41.9 °F 46.4 °F 100% 29.88 in 0.5 mi SSE 9.2 mph - N/A Fog Fog
11:55 PM 48.2 °F - 46.4 °F 93% 29.87 in 0.5 mi SSE 10.4 mph - N/A Fog Fog